Content
SEND FEEDBACK

Daily
Averages
Monthly
Summary
United States of America

HATFIELD, ARKANSAS


Home > North America > United States > Arkansas
Elevation: 1130 feet     Latitude: 34 34N     Longitude: 094 16W

WEATHER
 
SELECT A DAY
Number of Records: 232,582;   Date Range: 11/25/04 - 7/29/14
 
SHARE

PRINT THIS DATA

[ ← Previous Day ]
WEATHER ALMANAC - JANUARY 31, 2013
[ Next Day → ]
[ °C ]   °F
Weather ElementAverageHighLow
Temperature44.4 °F62.6 °F (3:35 pm)28.4 °F (3:35 am)
Dewpoint24.3 °F30.2 °F (12:55 am)15.8 °F (2:35 pm)
Humidity52.9 %93 % (12:55 am)17 % (2:35 pm)
Barometer30.15 in30.35 in (10:55 pm)30.05 in (2:55 am)
Wind Speed6.1 mph17.3 mph (2:55 pm)
Wind Gust24.2 mph (2:55 pm)
Weather ElementAverage
Visibility10 mi
Wind DirectionS (184.7 °)

Weather ElementTotal
Precipitation0.27 in
Heating Degree Days19.5 (Base 65)
Averaged from 70 records on January 31, 2013
WEATHER CONDITIONS BREAKOUT
WIND DIRECTION BREAKOUT
WEATHER BY HOUR - JANUARY 31, 2013
[ °C ]   °F
Local TimeTemperatureDewpointHumidityBarometerVisibilityWind DirectionWind SpeedGust SpeedPrecipitationEventsConditions
12:35 AM32.0 °F26.6 °F80 %30.07 in10.0 miCalmClear
12:55 AM32.0 °F30.2 °F93 %30.08 in10.0 miSW (220°)3.5 mphClear
1:15 AM30.2 °F28.4 °F93 %30.07 in10.0 miCalmClear
1:35 AM30.2 °F26.6 °F86 %30.07 in10.0 miCalmClear
1:55 AM30.2 °F26.6 °F86 %30.07 in10.0 miCalmClear
2:15 AM30.2 °F26.6 °F86 %30.06 in10.0 miCalmClear
2:35 AM30.2 °F28.4 °F93 %30.06 in10.0 miCalmClear
2:55 AM32.0 °F26.6 °F80 %30.05 in10.0 miCalmClear
3:15 AM30.2 °F26.6 °F86 %30.05 in10.0 miCalmClear
3:35 AM28.4 °F26.6 °F93 %30.06 in10.0 miSW (220°)3.5 mphClear
3:55 AM30.2 °F26.6 °F86 %30.06 in10.0 miCalmClear
4:15 AM30.2 °F26.6 °F86 %30.06 in10.0 miCalmClear
4:35 AM30.2 °F26.6 °F86 %30.06 in10.0 miCalmClear
4:55 AM30.2 °F26.6 °F86 %30.07 in10.0 miCalm0.02 inClear
5:15 AM32.0 °F26.6 °F80 %30.08 in10.0 miCalmClear
5:35 AM32.0 °F26.6 °F80 %30.09 in10.0 miCalmClear
5:55 AM30.2 °F26.6 °F86 %30.09 in10.0 miCalmClear
6:15 AM30.2 °F26.6 °F86 %30.09 in10.0 miCalmClear
6:55 AM30.2 °F26.6 °F86 %30.10 in10.0 miCalmClear
7:15 AM30.2 °F26.6 °F86 %30.11 in10.0 miCalmClear
7:35 AM30.2 °F24.8 °F80 %30.12 in10.0 miCalmClear
7:55 AM32.0 °F26.6 °F80 %30.13 in10.0 miCalmClear
8:15 AM32.0 °F28.4 °F87 %30.14 in10.0 miCalmClear
8:35 AM33.8 °F30.2 °F87 %30.15 in10.0 miWest (270°)3.5 mphClear
8:55 AM37.4 °F30.2 °F75 %30.15 in10.0 miCalmClear
9:15 AM42.8 °F28.4 °F57 %30.16 in10.0 miWest (260°)4.6 mphClear
9:35 AM46.4 °F24.8 °F43 %30.15 in10.0 miWest (260°)6.9 mphClear
9:55 AM48.2 °F23.0 °F37 %30.15 in10.0 miWest (260°)8.1 mphClear
10:15 AM50.0 °F21.2 °F32 %30.15 in10.0 miSW (230°)8.1 mphClear
10:35 AM50.0 °F23.0 °F35 %30.15 in10.0 miWSW (250°)6.9 mph0.01 inClear
10:55 AM51.8 °F21.2 °F30 %30.15 in10.0 miWSW (250°)9.2 mph0.01 inClear
11:15 AM51.8 °F21.2 °F30 %30.15 in10.0 miWSW (250°)12.7 mph17.3 mphClear
11:35 AM53.6 °F23.0 °F30 %30.15 in10.0 miWest (270°)15.0 mphClear
11:55 AM55.4 °F24.8 °F31 %30.14 in10.0 miWest (270°)12.7 mph17.3 mph0.02 inClear
12:15 PM57.2 °F21.2 °F25 %30.13 in10.0 miWSW (240°)12.7 mph16.1 mphClear
12:35 PM59.0 °F19.4 °F22 %30.12 in10.0 miWSW (240°)12.7 mph19.6 mphClear
12:55 PM59.0 °F21.2 °F23 %30.11 in10.0 miWSW (250°)12.7 mph18.4 mph0.01 inClear
1:15 PM59.0 °F21.2 °F23 %30.10 in10.0 miWSW (250°)13.8 mph17.3 mphClear
1:35 PM60.8 °F17.6 °F19 %30.09 in10.0 miSW (230°)11.5 mph19.6 mphClear
1:55 PM60.8 °F19.4 °F20 %30.09 in10.0 miWSW (240°)10.4 mph21.9 mphClear
2:15 PM60.8 °F17.6 °F19 %30.09 in10.0 miSW (230°)12.7 mph18.4 mph0.02 inClear
2:35 PM60.8 °F15.8 °F17 %30.08 in10.0 miWSW (240°)12.7 mph20.7 mph0.02 inClear
2:55 PM60.8 °F17.6 °F19 %30.09 in10.0 miWSW (240°)17.3 mph24.2 mph0.02 inClear
3:15 PM60.8 °F19.4 °F20 %30.09 in10.0 miWSW (240°)9.2 mphClear
3:35 PM62.6 °F21.2 °F20 %30.09 in10.0 miSW (230°)11.5 mph17.3 mph0.01 inClear
3:55 PM62.6 °F21.2 °F20 %30.08 in10.0 miWSW (240°)12.7 mph18.4 mph0.01 inClear
4:15 PM62.6 °F19.4 °F19 %30.08 in10.0 miSW (230°)9.2 mphClear
4:35 PM62.6 °F21.2 °F20 %30.10 in10.0 miWSW (240°)10.4 mphClear
4:55 PM60.8 °F19.4 °F20 %30.09 in10.0 miSW (230°)5.8 mphClear
5:15 PM60.8 °F21.2 °F22 %30.09 in10.0 miWSW (240°)5.8 mph0.02 inClear
5:35 PM59.0 °F21.2 °F23 %30.10 in10.0 miWSW (240°)4.6 mph0.02 inClear
5:55 PM57.2 °F21.2 °F25 %30.11 in10.0 miSW (230°)4.6 mph0.02 inClear
6:15 PM55.4 °F23.0 °F29 %30.14 in10.0 miWNW (290°)6.9 mphClear
6:35 PM55.4 °F26.6 °F33 %30.17 in10.0 miNNW (340°)5.8 mphClear
6:55 PM53.6 °F24.8 °F33 %30.20 in10.0 miNNW (340°)5.8 mph0.01 inClear
7:15 PM50.0 °F28.4 °F43 %30.22 in10.0 miNorth (10°)6.9 mph17.3 mphClear
7:35 PM48.2 °F30.2 °F50 %30.24 in10.0 miNW (310°)4.6 mphClear
7:55 PM48.2 °F28.4 °F46 %30.25 in10.0 miNNW (340°)8.1 mphClear
8:15 PM46.4 °F28.4 °F50 %30.27 in10.0 miNNW (330°)13.8 mph18.4 mphClear
8:35 PM44.6 °F28.4 °F53 %30.28 in10.0 miNNW (340°)11.5 mph19.6 mphClear
8:55 PM42.8 °F28.4 °F57 %30.30 in10.0 miNNW (340°)11.5 mph20.7 mphClear
9:15 PM42.8 °F28.4 °F57 %30.31 in10.0 miNW (320°)5.8 mph17.3 mphClear
9:35 PM41.0 °F26.6 °F57 %30.32 in10.0 miNorth (360°)9.2 mph0.02 inClear
9:55 PM41.0 °F26.6 °F57 %30.33 in10.0 miNNW (330°)9.2 mph18.4 mph0.02 inClear
10:15 PM39.2 °F24.8 °F56 %30.34 in10.0 miNNW (330°)11.5 mph16.1 mphClear
10:35 PM39.2 °F21.2 °F49 %30.34 in10.0 miNNW (330°)9.2 mphClear
10:55 PM37.4 °F21.2 °F52 %30.35 in10.0 miNW (320°)5.8 mph18.4 mphClear
11:15 PM37.4 °F19.4 °F48 %30.35 in10.0 miNW (320°)4.6 mphClear
11:35 PM37.4 °F19.4 °F48 %30.35 in10.0 miNorth (350°)5.8 mphClear
11:55 PM35.6 °F17.6 °F48 %30.34 in10.0 miNNW (340°)5.8 mph0.01 inClear
Hourly data recorded from KMEZ, located miles away from Hatfield, Arkansas







STORIES FROM OUR PARTNERS